Temperature
19 17 17 17 18 18 18 18 17 18 18 18 18 17 17 17 18 17 18 19 19 19 19 19 19 19 19 18 18 18 17 17 17 17 16 16 16 15 15 15 15 15 15 14
17 17 18 18 18 18 18 18 17 18 19 18 17 17 17 17 17 18 18 18 19 19 19 19 19 19 19 18 18 18 17 17 17 17 16 16 16 15 15 15 15 15 15 14
18 19 19 19 19 18 18 18 18 18 18 18 18 17 17 17 17 18 18 19 19 19 19 19 19 19 19 18 18 18 17 17 17 16 16 16 16 15 15 15 15 15 14 14
18 19 19 19 19 18 18 18 18 18 17 16 17 17 17 16 17 17 17 18 19 19 19 19 19 19 19 18 18 18 17 17 17 17 16 16 16 16 15 15 15 15 14 14
18 19 19 19 19 19 18 18 18 18 17 16 16 17 16 16 17 16 17 18 19 19 19 19 19 19 19 18 18 18 17 17 17 17 16 16 16 16 15 15 15 15 14 14
19 19 20 20 19 19 18 17 17 16 16 16 17 17 17 15 16 17 17 18 18 19 19 19 19 19 18 18 18 17 17 17 17 17 16 16 16 16 15 15 15 15 14 14
19 19 19 19 19 19 18 17 16 16 16 16 16 16 16 17 17 17 17 18 19 19 19 19 19 18 18 18 18 17 17 17 17 17 16 16 16 16 15 15 15 15 14 14
18 18 19 20 19 18 17 17 16 17 16 16 16 16 17 17 17 18 18 18 19 19 19 19 19 19 18 18 18 17 17 17 17 16 16 16 16 15 15 15 15 15 14 14
18 18 20 20 19 18 17 16 16 16 16 16 16 17 17 17 16 17 17 18 18 19 19 19 18 18 18 18 18 18 17 17 17 17 16 16 16 16 15 15 15 15 14 14
18 19 19 19 19 18 18 16 15 16 16 16 17 17 16 17 16 16 16 17 18 19 19 19 19 18 18 18 18 17 17 17 17 17 16 16 16 16 15 15 15 15 14 14
18 18 19 19 19 18 17 17 15 14 15 16 16 17 17 17 16 16 16 17 18 19 19 19 19 18 18 18 18 17 17 17 17 16 16 16 16 16 15 15 15 15 14 14
17 16 17 18 19 19 18 17 16 16 16 15 15 16 18 17 17 17 17 18 18 19 19 19 19 18 18 18 17 17 17 17 17 16 16 16 16 15 15 15 15 14 14 14
17 16 17 18 18 18 19 17 16 15 14 14 15 17 17 16 16 17 17 18 18 18 18 18 18 18 18 17 17 17 17 17 17 16 16 16 16 15 15 15 15 14 14 14
17 16 17 18 18 18 19 18 17 16 15 15 16 17 17 16 16 16 17 17 18 18 18 18 18 18 18 17 17 17 17 17 17 16 16 16 16 15 15 15 14 14 14 14
17 17 18 18 19 19 19 19 17 17 16 16 17 16 17 16 16 16 17 17 17 18 18 18 18 18 17 17 17 17 17 17 16 16 16 16 15 15 15 14 14 14 14 14
16 17 18 19 19 19 19 19 18 18 17 17 17 17 17 16 16 16 16 17 17 18 18 18 18 18 17 17 17 17 17 16 16 16 16 15 15 15 15 14 14 14 14 13
15 16 17 17 18 19 18 18 18 18 17 17 17 17 16 15 15 16 17 17 18 18 18 18 18 18 17 17 17 17 16 16 16 16 15 15 15 15 14 14 14 14 13 13
15 14 14 15 18 18 18 18 18 18 17 17 17 16 16 16 17 17 18 18 18 18 18 18 18 18 17 17 17 17 16 16 16 15 15 15 15 14 14 14 14 13 13 13
14 14 14 14 16 17 18 18 18 18 18 17 16 15 16 16 16 16 17 18 18 18 18 18 18 17 17 17 17 16 16 16 15 15 15 15 14 14 14 14 13 13 13 13
13 13 13 14 17 17 18 18 18 18 18 17 16 15 15 16 15 15 18 18 18 18 18 18 17 17 17 16 16 16 16 15 15 15 14 14 14 14 14 13 13 12 12 12
14 13 13 14 15 15 16 17 18 18 18 18 17 16 16 16 17 18 18 18 18 18 17 17 17 17 16 16 16 16 15 15 15 14 14 14 13 13 13 13 12 12 12 12
14 13 13 13 15 16 17 17 17 17 18 18 18 18 17 18 18 18 18 18 17 17 17 17 17 16 16 16 15 15 15 15 14 14 14 13 13 13 13 12 12 12 12 11
13 14 13 14 15 16 16 17 19 19 19 19 19 18 18 18 18 18 17 17 17 17 17 16 16 16 15 15 15 15 14 14 14 14 13 13 13 12 12 12 12 11 11 11
12 12 12 12 13 15 16 17 18 19 20 20 19 19 19 18 18 17 17 17 16 16 16 16 16 15 15 15 14 14 14 13 13 13 13 12 12 12 12 11 11 11 11 11
13 12 12 13 13 15 16 18 19 19 19 19 19 19 19 18 17 17 17 16 16 16 15 15 15 15 14 14 14 13 13 13 13 13 12 12 12 11 11 11 11 11 10 10
11 12 13 14 15 14 17 18 18 18 19 19 18 18 18 18 17 17 16 16 16 15 15 15 14 14 14 13 13 13 13 12 12 12 12 11 11 11 11 10 10 10 10 10
Wind_Speed
3 4 2 4 5 4 4 4 2 1 1 3 3 1 1 1 3 4 4 4 5 4 2 3 5 6 6 5 6 6 6 5 4 3 3 2 2 2 2 2 3 3 4 3
4 1 4 4 4 4 4 3 1 1 2 3 2 1 1 2 4 5 5 5 5 4 3 4 5 5 5 6 5 5 5 5 3 3 2 2 2 1 1 2 3 4 4 3
4 3 3 5 4 4 2 5 5 3 3 4 3 3 2 1 1 2 3 4 5 7 7 6 5 5 5 6 6 6 5 4 4 4 3 3 3 3 3 3 3 3 4 3
3 3 3 4 4 5 2 3 5 5 4 1 2 1 4 1 1 2 3 3 4 5 6 6 6 6 6 5 5 5 5 4 4 4 4 4 2 1 1 1 2 3 4 4
3 2 4 4 4 6 4 4 5 4 5 3 2 2 5 0 2 4 5 5 5 5 6 7 6 6 5 5 5 4 5 4 3 3 4 4 2 1 1 1 2 3 3 3
3 2 3 3 2 4 6 7 6 5 4 1 2 2 5 4 5 5 5 5 6 6 5 6 5 5 4 4 4 4 4 3 3 3 3 3 3 1 1 1 2 3 3 3
2 1 1 4 5 3 5 6 3 3 2 3 2 2 6 5 5 6 7 6 6 6 6 6 6 6 5 5 4 4 4 2 2 2 2 2 2 2 2 1 1 1 2 2
2 3 2 3 5 6 4 6 6 4 4 2 1 3 6 4 2 4 5 6 6 6 6 6 6 6 6 5 5 4 4 2 2 2 1 2 2 2 1 1 1 1 2 3
5 4 1 2 3 8 6 3 5 6 3 1 3 4 5 2 3 5 6 6 6 6 6 6 6 6 6 5 5 5 5 3 2 2 2 1 1 1 1 1 0 1 2 2
6 2 1 1 5 4 5 8 5 5 4 1 3 3 4 4 4 5 6 7 6 5 5 5 6 6 5 5 4 4 4 4 2 2 2 2 1 1 1 1 0 1 2 2
4 4 0 2 4 6 4 4 5 4 4 5 2 5 5 8 8 9 9 8 7 7 6 6 5 5 6 5 5 4 4 3 2 2 2 2 1 0 0 0 1 1 1 1
4 4 2 4 2 4 5 7 7 5 3 4 3 5 4 5 6 8 8 7 6 6 5 5 5 6 5 5 4 4 4 3 2 2 2 2 1 1 1 1 2 1 1 1
6 5 3 3 3 1 3 5 5 6 5 5 4 5 3 2 4 5 7 7 6 6 6 5 5 6 5 5 4 4 3 3 2 3 3 2 1 1 0 1 2 2 1 2
5 4 6 7 6 5 4 5 6 6 5 5 6 5 3 2 4 5 6 7 7 7 7 6 5 5 5 4 4 4 2 2 3 3 3 2 1 1 1 1 1 1 1 1
5 4 4 4 3 3 4 6 8 6 7 7 7 7 7 7 7 7 7 7 7 7 6 6 6 5 4 4 4 3 3 2 3 3 2 1 1 0 0 1 1 2 2 2
3 4 2 1 0 3 2 4 7 6 5 5 3 5 4 4 5 6 7 9 9 8 7 7 6 6 5 5 4 4 3 3 3 3 2 1 1 1 1 0 1 2 3 3
3 5 4 2 3 2 3 5 7 5 5 7 8 8 6 6 8 9 9 9 9 9 8 8 7 7 6 6 6 5 4 3 3 3 2 1 1 1 0 0 1 2 2 2
6 5 4 2 2 3 7 3 4 5 4 5 5 4 9 8 7 4 5 9 9 8 8 7 6 6 5 4 4 5 4 4 4 2 1 1 1 1 1 1 1 1 1 1
4 7 5 4 3 5 7 3 5 5 4 5 6 5 6 7 6 2 2 6 7 7 7 6 6 6 6 5 5 6 5 4 4 2 1 1 2 1 1 0 0 0 1 1
6 5 6 5 4 6 7 3 3 5 3 5 8 9 9 9 5 5 5 6 6 6 6 6 6 6 6 5 6 7 5 4 3 3 2 1 1 2 1 1 1 0 0 1
4 4 4 5 4 7 7 3 5 5 7 5 9 10 11 9 7 6 8 7 6 6 7 7 7 6 5 6 7 7 5 3 3 2 2 2 1 1 1 0 0 0 0 1
7 6 5 6 4 8 3 6 7 7 2 5 8 9 9 6 6 8 9 8 8 7 7 7 7 6 4 5 7 6 4 3 2 3 2 1 0 0 1 1 1 1 0 1
7 7 7 8 7 4 3 5 4 3 4 5 7 7 10 8 7 8 8 8 8 8 7 6 8 7 4 4 6 6 4 3 4 3 2 1 1 0 0 1 0 0 0 0
3 2 4 3 6 5 4 4 3 3 4 4 7 9 10 9 9 9 9 8 7 7 7 7 8 7 5 4 4 4 4 4 4 3 2 1 1 0 1 0 1 1 1 1
5 5 3 3 5 4 4 3 3 2 4 6 6 7 10 11 10 9 9 8 8 7 6 7 7 7 5 4 3 3 4 5 4 3 2 1 1 1 1 1 2 2 3 3
5 7 7 7 7 6 5 3 3 5 5 7 8 6 6 9 10 9 8 8 8 7 6 6 6 6 5 4 3 3 3 4 5 3 2 1 1 1 1 1 3 3 4 6
Wind_Direction
59 79 184 204 178 158 140 129 121 276 301 110 131 174 264 146 161 178 185 185 186 191 184 128 133 129 123 122 125 126 124 124 116 99 97 90 66 29 23 22 21 25 27 34
52 272 226 166 150 128 122 116 127 9 36 105 104 9 316 184 202 205 197 196 188 172 142 132 134 131 136 140 136 132 139 140 138 125 120 118 118 72 9 351 9 13 14 17
177 236 158 139 137 135 151 165 174 159 66 53 83 5 335 301 213 200 190 187 179 177 170 163 154 151 146 151 157 157 154 148 138 122 103 81 56 34 18 5 353 351 1 6
221 252 161 145 161 149 195 196 160 139 109 34 93 225 288 275 245 205 197 179 180 181 170 166 163 166 165 162 153 150 146 140 133 131 126 124 117 104 281 299 315 332 355 3
228 195 154 166 188 159 170 115 113 116 117 76 32 127 284 273 224 225 210 192 186 183 172 171 172 173 161 151 150 146 136 129 125 130 133 123 113 127 334 349 345 348 349 358
232 219 177 170 117 131 122 87 71 59 77 68 242 170 272 229 213 211 209 193 185 177 167 160 153 140 132 132 136 138 136 133 126 126 124 131 136 130 72 360 348 341 337 339
355 358 144 132 106 80 96 101 67 24 20 256 239 188 251 251 217 194 192 190 184 173 164 158 155 155 150 147 147 143 139 136 128 127 137 159 168 169 181 221 275 320 327 323
152 270 218 168 161 159 156 140 152 175 200 266 288 238 261 281 207 161 157 162 166 166 166 168 170 166 163 161 153 142 144 151 143 144 170 174 167 164 191 209 211 250 273 277
174 239 282 168 134 133 138 153 153 127 126 95 278 287 310 44 94 125 135 146 168 172 171 171 170 169 166 161 158 156 152 148 148 159 157 160 160 151 192 217 217 274 289 303
155 189 256 154 92 52 136 140 109 119 141 208 294 274 241 218 195 170 165 171 180 169 166 166 168 168 162 156 147 141 141 152 150 147 159 146 169 196 204 125 342 299 308 324
142 153 236 126 174 174 120 113 112 117 146 151 216 270 233 207 194 184 185 180 176 171 172 170 168 158 147 139 140 140 142 140 140 150 147 118 113 114 64 352 289 286 308 322
145 127 188 244 255 172 159 163 148 151 186 163 165 265 291 216 190 177 174 172 168 166 163 157 152 142 141 145 146 148 152 153 164 156 135 126 107 81 55 336 307 300 309 314
140 117 88 1 357 95 156 160 152 130 121 148 164 259 329 93 129 156 162 161 156 150 142 136 136 143 150 153 152 155 161 163 151 137 132 117 103 92 50 325 327 324 314 320
123 121 160 190 214 193 189 169 154 134 148 184 211 232 287 170 154 160 162 157 151 149 148 145 146 149 154 155 152 151 155 153 144 137 136 145 183 186 224 304 341 343 333 324
112 152 197 223 222 185 201 186 172 177 180 184 216 210 230 208 186 173 160 150 143 145 150 156 156 155 156 153 150 150 150 136 130 124 129 176 198 132 70 11 356 7 15 6
101 145 149 318 276 182 216 220 187 193 183 194 198 238 229 159 134 145 157 156 158 163 166 164 160 159 165 168 165 160 160 153 134 130 139 133 107 93 68 1 13 26 17 9
124 130 128 260 314 56 273 234 196 190 188 173 195 216 157 153 172 178 176 172 172 172 168 168 172 174 176 177 169 167 168 148 135 139 141 123 109 93 52 43 48 26 4 11
133 121 128 137 90 223 247 254 185 180 210 198 194 179 172 175 168 160 169 172 172 171 169 172 170 165 163 156 152 147 135 132 134 133 139 142 127 106 60 63 43 344 359 7
131 131 121 130 177 276 291 249 175 173 241 205 179 161 149 123 92 48 192 175 175 172 167 165 161 151 143 143 142 131 126 128 126 137 162 177 159 146 120 83 332 312 4 349
67 97 118 132 163 232 251 253 184 129 261 221 170 160 154 134 147 219 189 161 153 145 143 142 135 126 132 140 133 126 131 132 153 179 182 168 154 153 176 225 248 288 289 293
98 90 134 156 200 256 254 248 127 157 237 207 173 167 165 174 186 167 147 145 144 138 137 136 132 135 146 143 133 132 137 166 193 173 148 132 140 158 177 173 323 288 357 351
164 157 173 152 185 250 238 144 176 214 222 161 168 168 165 154 129 133 141 142 139 134 131 135 135 135 137 142 139 138 161 189 151 131 124 123 131 142 87 112 12 23 67 5
190 187 182 186 208 243 229 216 235 182 177 176 166 165 153 144 145 144 145 145 144 142 140 138 137 132 129 142 145 151 179 156 134 122 120 110 59 43 107 155 193 323 341 300
245 147 145 229 266 268 263 259 255 201 194 175 159 154 152 149 149 146 146 146 145 143 144 140 135 136 144 155 154 162 161 147 136 137 146 135 112 18 342 241 210 216 248 269
207 159 161 241 272 298 289 245 222 162 138 131 131 145 152 146 148 152 152 154 153 147 145 146 148 152 160 156 152 155 150 143 138 142 153 161 170 191 291 293 259 248 248 236
196 176 175 216 220 197 233 229 171 150 151 148 136 128 139 149 153 152 155 157 154 153 150 150 153 156 160 154 156 161 156 148 144 148 170 187 195 224 244 288 315 292 273 285
Height
1504 1509 1513 1512 1512 1513 1516 1520 1524 1523 1518 1520 1523 1524 1523 1523 1523 1524 1526 1527 1529 1531 1533 1535 1537 1539 1541 1542 1544 1545 1546 1547 1548 1549 1549 1549 1549 1549 1549 1548 1548 1547 1546 1545
1510 1512 1507 1507 1509 1512 1516 1521 1524 1522 1518 1521 1525 1526 1524 1523 1524 1524 1525 1527 1528 1531 1533 1535 1537 1539 1541 1542 1544 1546 1547 1548 1549 1549 1550 1550 1550 1550 1549 1549 1548 1548 1546 1545
1509 1508 1504 1507 1510 1514 1517 1521 1522 1523 1521 1522 1526 1530 1527 1524 1524 1524 1525 1526 1528 1530 1532 1534 1537 1539 1541 1542 1544 1546 1547 1549 1550 1550 1550 1550 1550 1550 1550 1549 1549 1548 1547 1545
1507 1504 1504 1507 1511 1513 1520 1514 1517 1520 1528 1534 1531 1541 1529 1526 1524 1524 1524 1525 1527 1529 1531 1533 1536 1538 1540 1543 1545 1546 1548 1549 1550 1550 1551 1551 1550 1550 1550 1550 1549 1548 1547 1546
1507 1503 1504 1508 1508 1510 1514 1513 1517 1521 1528 1536 1535 1540 1535 1527 1526 1524 1523 1524 1526 1528 1530 1532 1535 1538 1540 1543 1545 1547 1548 1549 1550 1551 1551 1551 1551 1551 1551 1550 1549 1548 1547 1546
1503 1501 1502 1504 1505 1507 1511 1517 1522 1527 1533 1543 1537 1540 1537 1529 1523 1521 1521 1523 1525 1527 1530 1532 1535 1538 1540 1543 1545 1547 1548 1549 1550 1551 1551 1551 1552 1551 1551 1550 1549 1549 1547 1546
1507 1503 1502 1502 1508 1511 1514 1526 1540 1543 1548 1545 1535 1537 1533 1518 1516 1517 1518 1521 1524 1526 1529 1532 1534 1537 1540 1542 1544 1546 1548 1549 1550 1551 1551 1551 1552 1551 1551 1550 1549 1548 1547 1546
1514 1515 1503 1502 1505 1511 1515 1522 1539 1547 1549 1545 1536 1537 1525 1515 1513 1515 1517 1520 1523 1526 1529 1531 1534 1537 1539 1542 1544 1546 1547 1549 1549 1550 1551 1551 1551 1551 1551 1550 1549 1548 1547 1546
1513 1512 1501 1500 1501 1506 1516 1521 1522 1535 1540 1545 1540 1530 1520 1514 1514 1515 1517 1520 1522 1525 1528 1531 1534 1536 1539 1541 1544 1545 1547 1548 1549 1550 1550 1551 1551 1551 1550 1550 1549 1548 1547 1546
1503 1510 1503 1501 1502 1506 1509 1516 1528 1535 1545 1549 1539 1534 1529 1518 1516 1516 1517 1519 1521 1524 1527 1530 1533 1536 1538 1541 1543 1545 1546 1547 1548 1549 1550 1550 1550 1550 1550 1549 1549 1548 1547 1546
1499 1508 1508 1504 1506 1509 1513 1518 1524 1533 1535 1546 1546 1537 1513 1512 1511 1513 1515 1517 1520 1523 1526 1529 1532 1535 1537 1540 1542 1544 1546 1547 1548 1548 1549 1549 1549 1549 1549 1549 1548 1547 1546 1545
1499 1508 1513 1507 1501 1500 1504 1511 1519 1530 1535 1537 1541 1534 1507 1507 1508 1509 1512 1516 1519 1522 1525 1528 1531 1534 1536 1539 1541 1544 1545 1546 1547 1548 1548 1549 1549 1549 1548 1548 1547 1546 1545 1544
1497 1507 1518 1516 1513 1506 1505 1508 1512 1519 1529 1537 1539 1528 1507 1506 1508 1510 1512 1515 1518 1521 1524 1527 1530 1533 1535 1538 1541 1543 1544 1546 1547 1547 1548 1548 1548 1548 1547 1547 1546 1545 1544 1543
1493 1504 1512 1518 1512 1505 1505 1506 1509 1515 1527 1531 1527 1519 1510 1508 1508 1510 1512 1514 1517 1520 1523 1526 1529 1532 1535 1537 1540 1542 1543 1545 1546 1546 1546 1547 1547 1546 1546 1546 1545 1544 1543 1542
1492 1502 1502 1502 1499 1500 1500 1502 1506 1510 1513 1519 1515 1514 1508 1505 1506 1508 1510 1513 1517 1520 1522 1525 1528 1531 1534 1536 1539 1541 1542 1543 1544 1545 1545 1545 1545 1545 1545 1545 1544 1543 1542 1540
1494 1500 1501 1501 1498 1498 1501 1499 1502 1504 1506 1509 1508 1509 1502 1503 1505 1508 1510 1512 1515 1518 1521 1524 1527 1530 1532 1535 1537 1539 1541 1542 1543 1543 1544 1544 1544 1544 1543 1543 1542 1541 1540 1539
1496 1500 1506 1509 1502 1499 1506 1498 1498 1499 1499 1501 1506 1502 1500 1503 1504 1505 1508 1510 1513 1516 1519 1522 1525 1528 1531 1533 1536 1538 1539 1541 1542 1542 1542 1542 1542 1542 1542 1541 1540 1539 1538 1537
1495 1502 1509 1512 1507 1514 1502 1490 1491 1493 1494 1494 1494 1495 1496 1497 1501 1504 1506 1509 1511 1515 1518 1521 1524 1527 1530 1532 1534 1536 1538 1539 1540 1541 1541 1541 1541 1540 1540 1539 1539 1538 1536 1535
1490 1499 1510 1516 1515 1510 1497 1489 1490 1493 1494 1490 1492 1494 1496 1499 1502 1505 1507 1508 1511 1513 1517 1520 1523 1526 1528 1531 1533 1534 1536 1537 1538 1539 1539 1539 1539 1539 1538 1537 1537 1536 1535 1534
1493 1495 1507 1514 1513 1514 1497 1486 1485 1490 1495 1487 1488 1491 1495 1498 1506 1505 1504 1507 1510 1513 1516 1519 1522 1525 1527 1529 1531 1533 1534 1535 1536 1537 1537 1538 1537 1537 1536 1536 1535 1534 1533 1532
1499 1503 1507 1512 1511 1505 1488 1484 1486 1499 1494 1483 1484 1487 1491 1493 1495 1498 1502 1506 1509 1512 1515 1518 1521 1524 1526 1528 1530 1531 1532 1533 1535 1535 1536 1536 1536 1535 1535 1534 1533 1532 1531 1530
1496 1503 1507 1510 1511 1504 1483 1484 1487 1485 1480 1480 1482 1485 1488 1491 1494 1497 1501 1504 1508 1511 1514 1517 1519 1522 1525 1526 1528 1529 1530 1532 1533 1533 1534 1533 1533 1533 1532 1532 1531 1530 1529 1528
1490 1489 1492 1494 1492 1482 1480 1479 1479 1479 1479 1479 1481 1484 1487 1490 1493 1496 1500 1503 1507 1510 1513 1515 1518 1520 1523 1524 1526 1527 1529 1530 1530 1531 1531 1531 1531 1530 1530 1529 1528 1527 1526 1525
1485 1484 1486 1488 1482 1478 1477 1477 1477 1477 1478 1479 1480 1483 1486 1488 1492 1495 1499 1502 1506 1509 1512 1514 1516 1519 1521 1522 1524 1525 1526 1527 1528 1528 1528 1528 1528 1527 1527 1526 1526 1525 1523 1522
1479 1482 1484 1484 1479 1477 1475 1475 1475 1476 1477 1479 1481 1483 1485 1488 1491 1494 1498 1501 1504 1507 1510 1513 1515 1517 1519 1521 1522 1523 1524 1525 1525 1525 1525 1525 1525 1524 1524 1523 1523 1522 1521 1520
1475 1477 1480 1479 1474 1474 1473 1473 1474 1475 1476 1478 1480 1482 1485 1487 1490 1494 1497 1500 1503 1506 1509 1511 1513 1515 1517 1518 1520 1521 1522 1522 1522 1522 1522 1522 1522 1521 1520 1520 1519 1518 1518 1516